This is the latest recevied weather packets stored in our database for station/object SV9TNF-1. If no packets are shown the sender has not sent any weather packets the latest 10 day(s).
| Time | Temp. | Humidity | Pressure | Rain* | Wind** | Luminosity | Snow |
|---|---|---|---|---|---|---|---|
| 1777539889 | 28.33° C | 30% | 1003.7 hPa | 0 mm | 1.79 m/s, 121° | - | - |
| 1777539588 | 27.22° C | 29% | 1003.7 hPa | 0 mm | 2.68 m/s, 128° | - | - |
| 1777539289 | 26.67° C | 29% | 1003.7 hPa | 0 mm | 8.05 m/s, 339° | - | - |
| 1777538988 | 27.78° C | 29% | 1003.7 hPa | 0 mm | 1.79 m/s, 130° | - | - |
| 1777538688 | 28.33° C | 28% | 1004.1 hPa | 0 mm | 3.13 m/s, 325° | - | - |
| 1777538388 | 27.78° C | 30% | 1004.1 hPa | 0 mm | 0.89 m/s, 126° | - | - |
| 1777538088 | 27.22° C | 30% | 1003.7 hPa | 0 mm | 3.13 m/s, 86° | - | - |
| 1777537788 | 26.67° C | 31% | 1003.7 hPa | 0 mm | 1.34 m/s, 7° | - | - |
| 1777537488 | 27.22° C | 28% | 1003.7 hPa | 0 mm | 1.79 m/s, 358° | - | - |
| 1777537188 | 26.67° C | 27% | 1004.1 hPa | 0 mm | 5.81 m/s, 300° | - | - |
| 1777536888 | 26.67° C | 26% | 1004.1 hPa | 0 mm | 7.15 m/s, 326° | - | - |
| 1777536588 | 26.67° C | 25% | 1004.1 hPa | 0 mm | 4.92 m/s, 171° | - | - |
| 1777536287 | 26.67° C | 26% | 1004.1 hPa | 0 mm | 0 m/s | - | - |
| 1777535987 | 26.11° C | 27% | 1004.1 hPa | 0 mm | 4.02 m/s, 331° | - | - |
| 1777535687 | 26.11° C | 28% | 1004.1 hPa | 0 mm | 4.02 m/s, 312° | - | - |
| 1777535387 | 26.67° C | 28% | 1004.1 hPa | 0 mm | 1.79 m/s, 329° | - | - |
| 1777535087 | 26.11° C | 29% | 1003.7 hPa | 0 mm | 4.47 m/s, 329° | - | - |
| 1777534787 | 26.67° C | 28% | 1003.7 hPa | 0 mm | 2.24 m/s, 129° | - | - |
| 1777534487 | 26.11° C | 30% | 1004.1 hPa | 0 mm | 2.24 m/s, 168° | - | - |
| 1777534187 | 26.11° C | 29% | 1004.1 hPa | 0 mm | 2.24 m/s, 144° | - | - |
| 1777533887 | 26.11° C | 31% | 1004.1 hPa | 0 mm | 0 m/s | - | - |
| 1777533587 | 25.56° C | 34% | 1003.7 hPa | 0 mm | 1.34 m/s, 151° | - | - |
| 1777533286 | 25.56° C | 34% | 1003.7 hPa | 0 mm | 3.13 m/s, 134° | - | - |
| 1777532987 | 25° C | 36% | 1004.1 hPa | 0 mm | 1.34 m/s, 131° | - | - |
| 1777532686 | 24.44° C | 38% | 1004.1 hPa | 0 mm | 1.34 m/s, 120° | - | - |
* Rain latest hour (hover to see other rain measurements)
** Current wind speed in m/s (hover to see current wind gust speed)